Terminal Aerodrome Forecast
Issued by NWS

Home | Current Version | Previous Version | Text Only | Print | Product List | Glossary On
Versions: 1 2 3 4 5 6 7 8 9 10 11 12 13 14 15 16 17 18 19 20 21 22 23 24 25 26 27
000
FTUS45 KGJT 011141
TAFASE
TAF
KASE 011141Z 0112/0212 21004KT P6SM VCSH SCT050 OVC070
     FM011500 36006KT P6SM -SHRA SCT035 OVC050
     FM012000 34010KT P6SM -SHRA VCTS FEW025 BKN040 OVC060CB
     FM020300 33005KT P6SM VCSH SCT025 OVC050
      TEMPO 0203/0207 4SM -SN BR BKN025
     FM020700 31003KT P6SM OVC050=

USA.gov is the U.S. government's official web portal to all federal, state and local government web resources and services.